Regional Weather Roundup
Issued by NWS Little Rock, AR

Home | Current Version | Previous Version | Graphics & Text | Print | Product List | Glossary On
Versions: 1 2 3 4 5 6 7 8 9 10 11 12 13 14 15 16 17 18 19 20 21 22 23 24 25 26 27 28 29 30 31 32 33 34 35 36 37 38 39 40 41 42 43 44 45 46 47 48 49 50
000
ASUS44 KLZK 212000
RWRLZK
ARKANSAS STATE WEATHER ROUNDUP
NATIONAL WEATHER SERVICE LITTLE ROCK AR
ISSUED BY NATIONAL WEATHER SERVICE MEMPHIS TN
300 PM CDT THU SEP 21 2017

NOTE: "FAIR" INDICATES FEW OR NO CLOUDS BELOW 12,000 FEET WITH NO
SIGNIFICANT WEATHER AND/OR OBSTRUCTIONS TO VISIBILITY.

ARZ001-003-010-029-212100-
NORTHWEST ARKANSAS

CITY           SKY/WX    TMP DP  RH WIND       PRES   REMARKS
FORT SMITH     MOSUNNY   92  72  51 S9        29.94F HX  99
HARRISON       MOSUNNY   89  67  47 SE15G21   30.00F HX  92
BENTONVILLE    MOSUNNY   88  71  57 S12       30.00F HX  94
SILOAM SPGS    PTSUNNY   88  71  57 S12G21    29.98F HX  94
HIGHFILL       MOSUNNY   89  71  55 S12       29.98F HX  95
SPRINGDALE     MOSUNNY   88  70  55 S12       30.00F HX  92
$$

ARZ004-005-016-212100-
NORTH CENTRAL ARKANSAS

CITY           SKY/WX    TMP DP  RH WIND       PRES   REMARKS
BATESVILLE     CLOUDY   N/A N/A N/A SE10      30.00F
FLIPPIN        MOSUNNY   90  69  50 VRB6      29.98F HX  94
MTN HOME       MOSUNNY   91  68  46 SW9G18    29.98F HX  95
$$

ARZ040-041-212100-
WEST CENTRAL ARKANSAS

CITY           SKY/WX    TMP DP  RH WIND       PRES   REMARKS
MOUNT IDA      MOSUNNY   91  67  44 VRB5      29.97F HX  94
$$

ARZ017-025-026-028-212100-
NORTHEAST ARKANSAS

CITY           SKY/WX    TMP DP  RH WIND       PRES   REMARKS
JONESBORO      SUNNY     93  74  53 SW10G16   29.99F HX 103
NEWPORT        MOSUNNY   92  72  51 S10       29.99F HX  99
BLYTHEVILLE    SUNNY     90  71  53 VRB6      30.01F HX  96
$$

ARZ022-033-042-044-212100-
CENTRAL ARKANSAS

CITY           SKY/WX    TMP DP  RH WIND       PRES   REMARKS
LITTLE ROCK    PTSUNNY   90  74  59 S8        29.98F HX  99
JACKSONVILLE   MOSUNNY   94  72  49 S13       29.98F HX 101
SEARCY         MOSUNNY   92  74  55 S8        30.00F HX 101
HOT SPRINGS    MOSUNNY   91  71  51 S9        29.99F HX  97
RUSSELLVILLE   MOSUNNY   92  68  45 S8        29.96F HX  96
$$

ARZ036-212100-
EAST ARKANSAS

CITY           SKY/WX    TMP DP  RH WIND       PRES   REMARKS
WEST MEMPHIS   SUNNY     91  71  51 S7        30.00F HX  97
$$

ARZ050-070-073-212100-
SOUTHWEST ARKANSAS

CITY           SKY/WX    TMP DP  RH WIND       PRES   REMARKS
TEXARKANA      MOSUNNY   91  70  49 S7        29.96F HX  96
EL DORADO      SUNNY     89  70  53 SE8       29.99F HX  94
DEQUEEN        MOSUNNY   88  73  61 S7        29.94F HX  95
$$

ARZ056-057-069-212100-
SOUTHEAST ARKANSAS

CITY           SKY/WX    TMP DP  RH WIND       PRES   REMARKS
PINE BLUFF     MOSUNNY   90  70  51 S9        29.99F HX  95
STUTTGART      MOSUNNY   92  70  48 S8        29.99F HX  97
MONTICELLO     MOSUNNY   90  71  53 CALM      29.99F HX  96
$$





USA.gov is the U.S. government's official web portal to all federal, state and local government web resources and services.